Regional Weather Roundup
Issued by NWS

Home | Current Version | Previous Version | Graphics & Text | Print | Product List | Glossary On
Versions: 1 2 3 4 5 6 7 8 9 10 11 12 13 14 15 16 17 18 19 20 21 22 23 24 25 26 27 28 29 30 31 32 33 34 35 36 37 38 39 40 41 42 43 44 45 46 47 48 49 50
000
ASUS45 KPSR 270210
RWRAZ

ARIZONA REGIONAL HOURLY WEATHER ROUNDUP
NATIONAL WEATHER SERVICE PHOENIX AZ
700 PM MST SUN APR 26 2015

NOTE: FAIR INDICATES FEW OR NO CLOUDS BELOW 12,000 FEET WITH NO
SIGNIFICANT WEATHER AND/OR OBSTRUCTIONS TO VISIBILITY.

AZZ001>003-036-270300-
NORTHWEST ARIZONA

CITY           SKY/WX    TMP DP  RH WIND       PRES   REMARKS
BULLHEAD CITY  CLEAR     75  21  13 N15G24    29.82S
KINGMAN        CLEAR     61  22  22 N15       29.91R
$$

AZZ004>008-015-016-018-270300-
NORTH CENTRAL ARIZONA

CITY           SKY/WX    TMP DP  RH WIND       PRES   REMARKS
GRAND CANYON   CLEAR     45  27  49 N6        29.94R
WILLIAMS       CLEAR     45  27  49 N15       30.01R
PRESCOTT       MOCLDY    52  29  41 NW16      29.90R
FLAGSTAFF      PTCLDY    43  31  62 VRB5      29.93R
PAGE           CLOUDY    60  25  26 NW13G24   29.85R
$$

AZZ009>014-017-270300-
NORTHEAST ARIZONA

CITY           SKY/WX    TMP DP  RH WIND       PRES   REMARKS
WINSLOW        LGT RAIN  49  42  77 W7        29.85R
SAINT JOHNS    CLOUDY    44  40  85 SW6       29.86R
WINDOW ROCK    CLOUDY    47  38  71 NW8       29.85R
SHOW LOW       MOCLDY    39  36  87 SW7       29.91R WCI  34
$$

AZZ023-270300-
GREATER PHOENIX AREA

CITY           SKY/WX    TMP DP  RH WIND       PRES   REMARKS
PHOENIX        MOCLDY    66  50  56 E10       29.78S
BUCKEYE        MOCLDY    68  46  45 CALM      29.80R
LUKE AFB       MOCLDY    70  47  44 E5        29.78R
DEER VALLEY    CLOUDY    63  50  62 VRB3      29.80R
SCOTTSDALE     CLOUDY    65  48  54 CALM      29.81F
MESA-FALCON    MOCLDY    63  45  51 NE12      29.80
MESA-GATEWAY   MOCLDY    64  46  52 NE9       29.83S
CHANDLER       MOCLDY    66  46  48 N7        29.81R
$$

AZZ027-028-270300-
SOUTHWEST MARICOPA COUNTY AND PINAL COUNTY

CITY           SKY/WX    TMP DP  RH WIND       PRES   REMARKS
CASA GRANDE    MOCLDY    66  39  37 CALM      29.80S
GILA BEND      MOCLDY    76  22  13 W13       29.78R
$$

AZZ503-504-507>509-270300-
SOUTHEAST ARIZONA

CITY           SKY/WX    TMP DP  RH WIND       PRES   REMARKS
TUCSON         PTCLDY    67  29  24 N8        29.85R
DAVIS-MONTHAN  PTCLDY    66  30  25 NW12      29.83R
RYAN FIELD       N/A     70  27  19 NW16      29.84R
NOGALES        MOCLDY    62  24  23 NW8       29.88R
SIERRA VISTA   PTCLDY    57  23  27 NW14G24   29.90R
DOUGLAS        MOCLDY    58  27  30 NW14      29.87R
SAFFORD        CLOUDY    54  47  77 NW17      29.84R
$$

AZZ020-021-025-026-031-270300-
SOUTHWEST ARIZONA

CITY           SKY/WX    TMP DP  RH WIND       PRES   REMARKS
YUMA           PTCLDY    81  21  11 N12G21    29.78R
$$

CAZ031-033-041-043-047-048-061-270300-
SOUTHERN CALIFORNIA

CITY           SKY/WX    TMP DP  RH WIND       PRES   REMARKS
DOWNTOWN L.A.  PTCLDY    77  37  23 VRB6      29.86S
L.A. AIRPORT   PTCLDY    67  49  52 W16       29.88S
SAN DIEGO      MOCLDY    65  52  62 W8        29.94S
BURBANK        PTCLDY    74  35  24 NW14G23   29.87F
ONTARIO        MOCLDY    69  43  38 W12       29.89R
RIVERSIDE      CLEAR     68  42  38 W6        29.89R
PALM SPRINGS   CLEAR     81  40  23 NW9       29.79S
EL CENTRO NAS  PTCLDY    83  32  16 W8        29.79R
IMPERIAL       PTCLDY    79  41  25 W7        29.77R
BLYTHE         PTCLDY    80  22  11 NW16      29.79R
NEEDLES        CLEAR     77  16  10 N15       29.82R
$$

NVZ020-UTZ003-270300-
SOUTHERN NEVADA-UTAH

CITY           SKY/WX    TMP DP  RH WIND       PRES   REMARKS
LAS VEGAS      PTCLDY    70  16  12 NE15G24   29.87R
SALT LAKE CITY MOCLDY    50  35  56 SE5       30.07R
$$

NMZ009-TXZ055-270300-
NEW MEXICO-WEST TEXAS

CITY           SKY/WX    TMP DP  RH WIND       PRES   REMARKS
ALBUQUERQUE    LGT RAIN  50  39  66 N6        29.80R
EL PASO        PTCLDY    60  33  36 W22G31    29.79R
$$


........................KEY........................
SKY/WX - SKY CONDITION/WEATHER
TMP    - TEMPERATURE IN FAHRENHEIT
DP     - DEW POINT IN FAHRENHEIT
RH     - RELATIVE HUMIDITY IN PERCENT
WIND   - DIRECTION AND SPEED IN MILES PER HOUR (MPH)
VRB    - VARIABLE WIND DIRECTION
PRES   - MEAN SEA LEVEL PRESSURE IN INCHES OF MERCURY
         F - FALLING PRESSURE   R - RISING PRESSURE
         S - STEADY PRESSURE
VSB    - VISIBILITY IN MILES
HX     - HEAT INDEX IN FAHRENHEIT
WCI    - WIND CHILL INDEX IN FAHRENHEIT
TC     - TEMPERATURE IN CELSIUS WHICH IS ALSO KNOWN AS
         TEMPERATURE IN CENTIGRADE
AFB    - AIR FORCE BASE
         LUKE AFB IS LUKE AIR FORCE BASE
         DAVIS-MONTHAN IS DAVIS-MONTHAN AIR FORCE BASE
NAS    - NAVAL AIR STATION
         EL CENTRO NAS IS EL CENTRO NAVAL AIR STATION
N/A    - NOT AVAILABLE



USA.gov is the U.S. government's official web portal to all federal, state and local government web resources and services.